Theta_e
341 340 341 340 340 340 339 339 339 339 339 339 339 339 339 339 338 339 339 339 339 339 339 338 338 338 337 336 333 331 333 335 336 335 335 334 335 334 334 334 333 333 333 331 331 332 332 332 332 332 332 332 331 331 331 330 330 330 329 329 329 328 328 329 329 329 331 333 334 332 328 331 332 329 328 328 328 328 329 330 331 331 331 330 330
338 339 339 340 339 340 340 339 339 339 339 339 340 339 338 338 338 338 337 337 338 338 338 338 337 337 337 335 334 333 333 334 336 337 335 334 334 333 333 332 331 332 333 332 332 332 332 332 333 333 333 333 333 332 332 331 331 330 328 327 329 328 328 328 328 329 331 333 332 330 329 329 329 329 330 329 327 328 328 330 331 331 331 330 330
336 336 337 338 338 338 339 339 339 339 339 339 339 338 338 338 338 338 337 337 337 337 338 338 336 337 337 335 334 334 333 333 336 337 335 333 333 333 333 333 333 333 334 333 332 332 333 333 333 333 333 333 333 333 332 332 331 331 328 328 329 329 328 328 328 328 330 332 330 329 329 328 328 328 328 328 328 329 329 330 331 330 330 330 331
332 334 335 336 336 337 336 336 337 338 338 338 338 338 337 338 337 337 337 337 337 336 337 338 337 337 337 336 335 334 334 334 334 335 334 333 332 332 333 333 334 333 333 333 333 333 333 334 334 334 333 332 332 332 332 332 332 331 330 329 330 329 328 328 328 328 329 330 329 328 329 328 329 328 328 328 328 329 329 330 330 330 329 330 330
329 331 332 333 334 335 335 335 335 336 336 335 336 336 336 336 336 336 336 337 337 337 337 337 337 337 337 336 335 334 334 334 334 335 335 333 332 332 333 332 333 332 331 331 332 334 334 334 334 333 333 333 332 332 332 332 332 332 331 331 330 330 329 327 327 327 327 328 328 328 328 328 329 329 329 330 329 328 329 329 330 330 329 329 329
325 327 327 329 331 332 333 334 334 334 334 334 334 334 334 335 335 335 335 336 336 337 337 337 336 337 337 337 336 335 335 334 333 334 336 335 333 332 333 332 332 332 331 331 332 333 333 333 333 333 333 333 333 332 332 332 332 332 331 331 331 330 329 327 327 328 327 327 328 328 327 326 328 329 330 330 329 328 328 329 329 329 328 328 329
323 323 324 325 328 330 331 332 332 332 332 332 332 332 332 333 333 333 333 334 335 336 336 337 336 336 337 336 336 335 335 334 333 332 334 336 335 333 333 333 331 331 331 332 332 330 331 332 332 333 333 333 333 333 332 332 332 332 332 332 332 331 329 327 327 328 329 328 327 328 327 325 325 327 328 329 329 329 329 329 330 330 328 327 328
322 321 322 323 324 326 327 329 330 330 331 331 331 331 331 331 332 332 332 332 333 333 334 335 336 337 337 336 336 335 334 334 334 332 333 334 334 333 334 334 333 332 332 332 331 329 330 332 332 333 334 334 334 333 332 332 332 332 331 331 332 331 329 328 327 328 328 328 328 328 328 326 325 325 327 328 329 330 329 329 330 329 328 327 327
321 320 321 321 321 322 323 325 327 329 329 329 330 330 330 330 330 331 331 331 332 332 332 333 334 336 337 337 336 335 335 335 335 334 333 333 333 333 333 332 332 332 331 331 330 329 331 333 333 333 334 334 334 333 333 333 331 330 330 331 331 331 330 328 328 328 328 328 329 328 327 327 327 327 327 327 328 330 330 329 330 329 328 327 327
320 320 320 320 320 321 321 322 323 325 325 325 326 326 326 327 327 327 328 329 330 330 331 332 332 333 334 335 335 335 335 335 335 334 334 334 333 334 334 333 332 332 331 330 330 330 332 333 333 333 334 334 333 333 333 332 330 330 330 331 331 330 330 329 328 328 328 328 328 328 328 328 329 328 328 327 328 329 329 329 330 329 328 327 326
320 320 320 320 320 320 320 321 321 322 322 322 323 323 323 324 324 325 326 326 327 328 329 330 330 331 333 333 333 334 335 335 334 334 334 333 333 333 334 334 333 332 331 331 331 331 331 332 333 333 333 334 333 333 332 331 330 331 331 331 330 330 330 329 329 328 327 327 327 328 329 329 329 329 328 328 327 327 328 329 330 330 328 327 326
319 319 319 319 320 320 320 320 320 320 321 321 321 321 322 322 323 324 324 324 325 326 327 327 328 330 331 331 331 332 334 334 334 334 334 333 331 332 334 334 333 332 331 331 332 332 331 331 332 333 333 333 334 332 331 330 331 332 331 331 331 331 330 329 328 327 326 326 327 328 329 329 329 328 328 328 328 327 328 329 329 329 329 328 328
318 318 319 318 318 318 319 319 319 319 319 319 320 320 320 321 321 322 322 323 324 324 325 326 327 327 328 330 331 330 331 332 333 333 333 333 333 333 333 332 333 332 331 331 333 333 332 332 332 333 333 333 333 332 332 331 331 331 331 331 331 330 330 328 326 326 326 326 327 328 328 328 327 326 328 328 328 328 329 329 328 329 329 329 329
318 318 318 318 318 318 318 318 318 318 318 318 318 318 319 319 320 320 321 321 322 323 324 324 325 325 326 328 329 329 330 330 331 331 331 332 332 333 333 332 332 332 331 332 333 333 333 333 333 333 332 333 333 332 332 332 331 330 330 330 329 329 329 328 326 327 327 327 327 328 328 327 326 326 328 328 328 328 328 328 328 329 329 328 329
317 317 317 317 317 317 317 317 317 317 317 317 317 317 317 318 318 319 320 320 320 321 322 323 323 324 324 325 326 328 329 330 330 330 330 330 330 330 331 331 332 331 332 333 333 333 334 334 333 334 333 332 333 332 331 331 330 330 330 330 329 329 328 327 327 328 328 327 326 327 327 327 326 327 327 328 328 327 327 328 328 328 328 328 328
317 316 316 316 316 316 316 316 316 316 316 316 316 316 316 317 317 318 318 318 319 320 321 322 322 323 323 324 325 325 326 327 329 329 330 329 329 329 329 330 331 331 331 331 331 331 332 333 333 333 332 331 331 332 331 330 330 329 330 330 329 329 328 328 327 327 327 327 326 326 326 327 326 326 327 327 327 327 326 327 327 327 327 328 329
315 315 315 315 315 315 315 315 315 315 316 316 316 316 316 316 317 317 317 318 318 318 319 320 321 322 322 323 323 324 324 325 326 327 328 329 329 330 331 330 331 331 331 331 330 329 330 331 332 331 331 330 330 331 330 330 329 329 329 330 329 328 328 327 327 326 326 326 327 326 327 326 325 327 329 328 327 326 326 326 327 327 327 328 330
315 315 315 315 315 315 315 315 315 315 315 315 316 316 316 316 316 317 317 317 317 317 318 318 319 320 322 323 323 323 324 324 324 325 327 328 328 329 330 330 330 331 331 330 331 330 328 329 331 331 331 330 330 331 330 330 330 329 329 329 328 327 327 326 325 325 324 324 325 326 327 327 327 328 329 327 326 326 325 326 327 327 328 328 328
315 314 314 314 314 314 314 315 315 315 315 315 315 315 315 315 316 316 316 316 316 316 317 317 317 318 320 322 322 323 323 324 324 324 325 327 328 328 329 329 329 329 330 330 331 331 329 329 330 331 330 329 330 331 330 330 330 329 329 328 328 328 327 326 325 324 323 323 324 326 327 327 327 328 327 325 325 325 324 326 327 327 328 328 327
314 314 314 314 314 314 314 314 314 314 314 314 314 314 315 315 315 315 315 315 315 316 316 316 316 317 318 320 321 322 323 323 323 324 324 326 327 328 328 329 329 329 329 329 329 330 330 330 329 330 330 329 330 330 330 329 330 329 328 329 329 329 328 327 326 325 324 324 325 327 328 327 327 327 327 326 325 325 326 328 329 329 328 328 327
314 313 313 313 313 313 313 313 314 313 313 314 314 314 314 314 314 314 314 315 315 315 315 316 316 316 317 318 319 321 322 323 323 324 325 326 326 327 327 329 330 329 329 329 328 329 330 330 329 329 329 329 330 330 329 329 329 328 328 329 329 329 328 326 326 326 326 327 327 329 329 327 327 328 327 327 327 328 329 330 330 331 330 328 327
313 313 313 313 313 313 312 313 313 313 313 313 313 313 313 313 314 314 314 314 314 315 315 315 315 315 316 317 318 319 320 322 323 324 325 325 325 326 326 327 328 328 329 328 328 328 328 329 329 328 328 329 330 330 329 329 327 327 328 329 330 330 329 327 326 327 328 328 329 330 330 328 328 328 327 328 330 329 329 329 328 329 329 328 327
312 312 312 312 312 312 311 312 312 312 312 312 312 313 313 313 313 313 313 313 313 314 314 314 315 315 315 316 317 318 319 320 321 323 324 325 325 325 325 326 327 328 328 328 327 328 328 328 327 327 328 329 330 329 329 328 326 326 328 330 331 331 329 328 328 328 329 329 330 330 330 328 328 329 328 328 330 328 327 327 327 328 329 328 327
312 311 311 311 311 311 311 311 311 311 311 311 311 312 312 312 312 313 313 313 313 313 314 314 314 314 314 314 315 316 317 318 319 322 324 324 324 324 325 325 326 327 328 327 327 327 328 328 328 327 327 328 329 329 329 328 326 327 328 329 330 330 329 330 330 330 330 329 329 330 330 329 329 329 328 328 328 327 326 327 327 329 329 327 326
311 311 311 311 310 310 310 310 310 310 310 310 310 310 311 311 311 312 312 312 313 313 313 314 314 314 313 313 313 314 315 315 317 320 322 323 324 325 325 325 326 326 327 327 326 326 327 328 328 327 327 328 328 328 329 328 327 326 327 328 329 330 331 332 331 331 330 329 329 330 330 329 329 329 328 328 328 326 326 328 329 330 329 327 326
311 311 310 310 310 310 310 309 309 309 309 309 309 309 309 310 310 311 311 312 312 312 313 313 313 313 313 313 313 313 313 313 315 318 320 322 323 325 326 325 326 326 326 326 325 325 327 328 328 327 327 327 327 327 328 328 328 327 326 328 330 330 331 331 331 331 330 329 329 330 330 330 330 329 328 328 328 326 326 328 329 329 328 326 326
310 310 310 310 309 309 309 309 308 308 309 309 309 308 308 309 309 310 310 311 311 312 312 312 313 312 312 312 312 312 312 312 313 315 318 321 322 324 325 325 325 326 326 326 325 325 327 328 328 327 326 325 326 327 327 327 327 328 327 328 330 330 330 330 330 331 331 330 330 329 329 329 329 329 328 327 328 327 326 327 328 328 327 325 326
310 310 309 309 309 309 309 308 308 308 308 309 308 308 308 308 308 309 309 311 311 311 311 312 312 312 311 311 312 311 312 312 311 313 316 319 321 322 323 324 325 325 325 325 325 325 327 328 328 327 326 325 326 327 327 327 326 326 326 327 328 330 330 330 330 330 330 330 329 329 329 329 329 329 328 328 328 328 327 327 328 327 326 325 325
309 309 309 309 309 309 308 308 308 308 308 308 308 308 308 308 308 308 308 310 310 311 311 311 311 311 311 311 311 311 311 311 311 311 313 316 319 321 322 323 324 324 324 325 324 325 326 327 327 327 327 326 326 327 327 327 327 326 327 328 328 329 329 329 328 328 328 328 328 329 330 330 329 329 328 328 328 328 329 329 328 327 326 326 326
310 309 308 308 308 308 308 308 308 307 307 308 308 307 307 307 307 307 307 309 309 310 310 310 310 310 310 310 310 310 310 310 310 310 311 312 315 318 320 321 322 323 324 324 324 324 325 326 326 326 325 324 325 326 326 326 326 326 326 326 327 328 328 327 327 327 328 329 329 331 331 329 329 328 327 328 328 327 328 329 328 327 327 327 327
310 309 308 307 307 307 307 307 307 307 307 308 308 307 307 307 307 307 307 307 309 309 309 309 309 309 309 309 309 309 310 309 309 309 309 310 312 314 317 318 320 321 323 324 323 323 324 325 325 325 325 323 323 324 325 325 326 326 325 324 325 326 327 329 328 326 326 328 329 329 330 328 327 327 327 327 327 327 327 327 327 327 327 327 327
308 309 308 307 306 307 307 306 306 306 306 307 307 307 306 307 307 306 306 307 308 308 308 308 308 308 308 308 308 308 308 309 309 309 309 308 309 311 313 315 316 318 319 321 322 322 322 323 323 324 325 325 324 325 325 325 324 325 324 324 324 324 325 327 329 328 327 327 326 326 327 326 325 325 326 327 327 327 327 327 327 326 326 327 326
307 307 307 306 306 306 306 305 305 305 306 306 307 306 306 306 306 306 306 306 307 307 307 307 307 307 307 307 307 307 308 308 308 308 308 308 307 308 310 311 312 313 315 316 318 319 320 321 321 322 323 324 325 325 324 323 323 324 325 325 325 324 324 325 327 328 327 327 327 325 325 325 325 325 325 326 327 326 326 326 325 325 325 325 325
306 306 305 305 305 305 305 304 304 305 305 305 306 306 306 306 306 305 305 306 306 306 306 306 306 306 306 306 306 306 307 307 307 307 307 307 307 307 307 307 308 309 311 313 314 315 316 318 319 320 320 322 324 325 324 324 324 325 326 326 325 324 324 325 326 327 327 328 327 327 326 326 326 326 324 325 327 327 326 325 325 324 324 325 325
306 305 305 304 304 304 304 304 304 304 305 305 305 305 305 305 305 305 305 305 305 305 305 305 305 305 305 305 305 305 306 306 306 306 306 306 306 306 306 306 306 307 308 309 310 311 312 313 315 316 317 320 322 324 324 325 325 325 326 326 325 324 324 324 325 325 327 328 327 327 328 328 327 326 325 326 327 327 326 324 324 325 325 325 326
305 305 305 305 305 304 303 303 303 304 304 304 305 305 305 305 305 305 305 305 305 305 304 305 305 305 305 305 305 305 305 305 305 305 306 305 305 306 305 305 305 306 306 306 307 308 309 310 311 312 314 316 319 322 323 324 325 325 325 325 325 324 324 323 323 323 325 327 326 327 328 327 326 327 327 325 326 326 326 324 325 326 326 326 325
304 304 304 305 304 303 303 303 303 304 304 304 304 305 305 305 304 304 304 304 304 304 304 304 304 304 304 304 304 304 304 304 305 305 305 305 305 305 305 305 305 305 305 305 305 306 307 308 308 309 311 312 314 317 319 321 323 324 325 325 325 325 324 324 324 324 324 325 326 325 326 326 326 327 327 325 325 325 325 325 325 325 325 325 324
304 304 304 303 303 303 303 303 303 303 304 304 304 304 304 304 304 304 304 304 304 303 303 303 303 303 303 304 304 304 304 304 304 304 304 304 304 304 304 304 304 305 305 304 304 305 305 305 306 307 308 309 310 312 314 317 320 322 324 324 324 325 325 324 324 324 323 325 326 324 324 325 325 323 324 325 324 324 325 325 325 324 323 323 323
303 303 303 303 302 302 302 303 303 303 303 303 303 304 304 304 304 303 303 303 303 303 303 303 303 303 303 303 303 303 303 303 303 303 303 303 303 303 303 303 304 304 304 304 304 304 304 304 304 305 306 307 308 309 310 312 315 318 321 322 323 324 324 324 324 324 323 324 325 323 323 325 325 323 324 325 325 325 325 325 324 322 322 323 323
302 302 302 302 302 302 302 302 302 302 302 302 303 303 303 303 303 303 303 303 302 302 302 302 302 302 302 303 303 303 303 303 303 303 303 303 303 303 303 303 303 303 303 303 303 303 303 303 303 303 304 305 306 307 308 309 311 313 316 318 320 321 321 322 323 323 323 322 323 323 323 324 325 325 325 325 325 325 324 323 323 322 322 323 324
301 301 301 301 301 302 302 301 302 302 302 302 302 303 302 303 303 302 302 302 302 302 302 302 302 302 302 302 302 302 302 302 302 302 302 302 302 302 302 302 302 302 302 302 301 301 302 302 302 302 302 303 304 305 306 307 308 310 312 313 315 317 318 319 320 321 321 321 321 322 322 323 324 325 325 325 324 324 323 322 321 321 321 322 321
300 300 301 301 301 301 302 302 302 302 302 302 302 302 302 302 302 302 301 301 301 301 301 301 301 301 301 301 302 302 302 301 301 301 301 301 301 301 301 302 302 302 302 301 301 301 301 301 301 301 301 302 303 303 304 305 306 308 309 310 311 313 314 316 317 317 318 319 320 320 320 322 323 324 324 324 324 323 322 321 320 319 319 319 318
299 299 300 301 301 301 302 302 302 302 302 302 302 302 302 302 302 301 301 301 301 301 301 301 301 301 301 301 301 301 301 301 301 301 301 301 300 300 300 301 301 301 301 301 301 300 300 300 300 300 300 301 302 302 303 304 305 306 307 308 308 310 311 312 313 314 314 315 317 318 319 319 321 322 322 322 323 322 320 319 319 318 317 316 315
299 298 299 300 301 302 301 301 302 302 302 302 302 302 302 301 301 301 301 300 300 300 300 300 300 300 300 300 301 301 301 301 300 300 300 300 300 299 299 299 300 300 300 300 300 300 300 300 299 299 299 300 301 301 302 302 303 303 304 305 306 307 308 309 310 311 311 312 314 316 317 318 319 320 319 318 318 319 318 318 318 316 314 313 312
299 299 299 300 301 301 301 301 301 301 301 301 301 302 301 301 300 300 300 300 300 300 300 300 300 300 300 300 300 301 300 300 300 300 300 300 299 299 298 298 298 299 299 299 299 299 299 299 299 299 298 299 300 300 301 301 302 302 303 303 304 304 305 306 306 307 308 308 309 312 316 318 317 316 316 315 315 315 316 316 316 314 312 311 311
300 300 300 300 300 300 300 300 300 300 300 300 300 301 301 301 300 300 300 300 300 300 300 300 300 299 300 300 300 300 300 300 300 300 299 299 299 299 298 298 298 298 298 298 298 298 299 299 299 298 298 298 299 299 299 300 300 301 301 302 303 303 303 303 304 304 305 305 305 307 311 314 313 311 311 312 313 313 314 314 313 312 312 312 311
300 300 300 300 300 299 299 300 299 299 299 299 299 300 300 301 300 300 300 300 300 300 300 300 299 299 299 299 299 300 300 300 300 300 299 299 299 299 298 298 297 297 297 297 297 297 298 299 299 299 298 298 298 298 298 298 299 299 300 300 301 302 301 301 301 301 302 303 303 304 306 308 309 308 307 309 310 311 311 311 311 310 310 310 310
300 300 300 300 299 299 299 299 299 299 299 299 298 299 300 301 300 300 300 300 300 300 300 300 299 299 299 299 299 299 299 299 300 300 299 299 298 299 298 298 297 296 296 297 297 296 296 298 299 299 298 298 298 297 297 297 297 298 298 299 300 300 300 300 299 299 300 301 301 303 304 305 305 305 305 305 306 306 307 307 307 306 305 305 305
300 300 300 300 299 299 299 299 299 299 299 299 299 299 300 301 300 300 300 300 300 300 299 300 299 299 299 299 299 299 299 299 299 299 299 298 298 298 298 298 297 297 296 296 296 296 295 296 298 298 298 298 298 297 297 297 297 297 297 298 298 299 300 300 299 299 299 300 301 302 303 303 303 303 302 302 302 302 302 302 302 302 301 301 301
300 299 299 299 299 299 299 299 299 299 299 300 300 299 300 300 300 300 300 300 300 300 299 299 299 299 299 299 299 299 299 299 299 299 299 299 299 298 298 297 297 297 296 296 296 296 295 295 296 296 296 297 297 298 298 298 297 297 297 297 297 297 298 298 299 299 300 300 300 301 301 301 301 301 302 301 301 301 301 301 301 301 300 300 300
300 300 299 299 299 299 299 299 299 299 300 301 300 300 300 300 300 300 300 300 300 300 299 299 299 299 299 299 299 299 299 299 298 298 299 299 299 298 298 298 297 297 297 296 296 296 295 295 295 295 295 296 297 298 298 298 298 298 298 298 298 297 297 297 297 298 299 299 299 299 299 300 300 300 301 301 301 301 301 301 301 301 301 301 301
Wind_Speed
11 8 8 6 5 6 6 7 7 7 8 6 3 2 2 2 1 0 1 3 4 4 5 6 7 7 8 10 12 13 14 14 14 15 16 16 16 17 16 16 15 14 15 15 15 15 16 16 17 17 18 19 19 19 20 20 20 20 22 22 19 21 23 23 22 22 20 15 14 16 17 15 16 17 16 16 16 16 17 15 14 13 13 12 11
12 11 10 9 9 8 8 9 9 8 7 6 4 3 3 3 3 3 2 2 1 2 4 6 7 8 9 10 11 12 14 14 13 14 15 15 15 17 16 15 15 14 16 17 17 16 16 17 18 18 19 19 20 19 20 21 21 21 22 22 21 21 24 24 23 23 20 16 15 16 16 17 18 18 18 19 18 18 18 16 15 15 14 13 11
15 15 14 13 13 11 11 11 9 9 9 8 6 5 4 3 3 4 5 5 2 1 2 4 5 6 8 9 10 10 11 12 12 13 15 14 14 15 15 15 15 15 15 17 17 16 17 18 18 18 20 21 21 20 21 22 22 22 23 24 22 22 24 25 25 24 21 18 17 16 15 15 16 18 21 22 19 19 19 17 17 17 15 13 11
16 15 14 14 14 14 14 12 11 10 10 9 8 6 5 4 4 3 4 5 3 3 2 3 3 4 6 7 8 9 11 12 13 13 14 14 14 15 16 16 15 14 14 15 15 15 16 16 17 18 19 20 21 21 22 22 22 22 24 25 25 25 25 25 26 26 24 21 18 16 15 14 13 16 20 21 19 20 20 18 18 18 16 14 12
15 14 13 13 13 12 13 12 10 10 9 8 7 6 4 3 3 3 4 5 5 5 4 4 4 4 5 6 7 8 10 11 11 11 12 13 13 14 15 16 14 13 14 14 14 14 15 16 17 17 18 18 20 21 21 21 22 23 24 26 27 27 26 26 27 28 28 26 20 16 15 13 12 13 14 16 18 21 22 20 20 19 17 16 14
14 13 11 11 12 11 10 9 8 8 8 7 5 4 3 1 1 2 4 4 4 5 6 6 6 5 5 6 8 9 8 8 9 10 12 13 12 13 14 15 15 14 14 13 14 16 17 17 17 17 17 18 19 20 20 21 22 24 25 26 27 27 25 27 29 28 28 29 25 21 18 15 13 11 11 14 17 20 23 21 20 19 16 16 16
12 12 11 11 11 11 9 9 8 7 7 6 5 5 4 4 2 2 2 3 4 4 5 6 6 6 7 8 8 9 9 9 10 11 13 13 13 14 15 15 15 16 16 16 17 18 17 17 16 16 17 17 18 19 20 20 21 24 24 24 26 27 27 27 27 25 25 27 27 26 25 21 19 16 14 14 15 18 21 20 19 19 17 17 17
11 11 10 10 10 10 9 8 8 7 6 5 4 4 4 3 3 3 3 4 5 5 5 4 5 7 9 9 9 10 11 12 12 12 13 14 14 15 16 16 15 16 17 18 19 17 16 17 16 16 16 17 18 19 20 20 21 22 23 23 25 27 28 26 25 25 26 25 25 27 27 25 25 21 16 13 13 15 19 20 18 19 19 18 18
12 11 10 10 10 10 9 8 7 5 4 4 3 2 2 1 1 3 5 6 6 6 5 5 6 6 7 8 9 10 11 12 11 11 12 14 15 15 15 16 15 16 17 18 17 16 16 16 16 17 16 16 17 16 17 18 19 20 21 24 25 26 27 27 25 26 26 25 25 26 26 26 26 22 17 15 14 15 18 19 18 18 20 20 20
11 11 11 10 10 9 9 8 7 6 6 6 5 4 3 3 3 4 4 5 5 5 5 6 6 5 6 7 8 9 10 12 12 12 12 13 14 15 15 16 15 16 18 18 18 17 17 18 17 18 17 17 18 16 16 17 19 19 20 23 24 24 25 27 27 26 25 24 25 24 24 26 26 24 22 21 19 18 19 19 19 21 22 21 22
11 11 11 10 10 9 8 8 8 8 7 7 7 6 6 5 6 7 6 6 4 3 4 5 4 3 5 7 8 8 10 12 13 14 14 14 16 17 17 17 16 16 18 19 19 19 19 20 19 18 18 17 18 17 17 17 17 18 19 21 23 23 24 25 25 24 23 22 22 21 21 23 23 22 22 22 21 22 21 19 18 20 21 20 22
10 10 10 10 9 9 9 8 8 8 8 8 8 7 6 6 7 7 7 8 7 5 4 4 4 4 5 6 7 8 10 11 12 13 14 15 17 18 17 17 16 16 18 19 20 20 21 21 20 19 18 18 17 17 18 17 16 17 18 20 22 25 25 24 23 23 22 21 20 19 18 18 19 18 18 18 20 22 22 20 18 18 19 20 20
9 9 10 9 9 9 9 9 8 9 9 9 8 8 7 7 8 8 8 9 8 7 6 5 5 5 5 5 7 9 9 10 12 12 13 14 15 17 18 17 16 17 18 20 21 20 20 20 20 20 19 19 18 17 18 18 17 17 17 18 21 24 25 24 24 24 23 21 19 18 17 17 18 18 18 20 21 20 19 20 18 18 20 19 17
9 9 10 10 10 9 9 9 9 9 9 9 8 8 8 7 8 9 9 9 8 8 7 7 7 6 6 6 6 7 8 9 11 12 13 13 14 16 17 18 19 19 19 21 21 19 20 20 20 20 20 19 19 19 20 19 19 18 16 17 19 22 24 24 23 23 21 20 19 18 18 18 18 18 19 22 22 20 18 17 17 17 20 20 18
9 10 11 11 11 10 10 10 10 10 10 10 9 9 9 9 9 10 10 10 9 9 8 8 8 8 7 7 6 7 8 9 9 10 12 13 13 15 16 17 20 20 19 20 21 20 21 21 20 21 21 21 21 22 22 21 21 20 18 18 19 19 21 23 22 20 18 18 20 19 18 18 19 19 21 22 22 22 20 19 18 17 18 21 21
9 10 11 11 11 11 11 11 11 11 11 11 10 10 9 9 10 11 11 11 10 10 9 8 8 8 8 8 7 8 8 8 8 8 10 12 14 15 15 15 18 21 21 22 24 24 23 23 24 24 23 23 23 24 25 24 23 22 20 19 18 18 20 21 21 19 18 18 19 19 18 18 18 18 19 20 21 22 21 21 21 19 18 20 19
9 10 11 11 11 11 11 11 11 11 11 11 11 10 10 10 10 11 11 11 11 10 9 9 9 8 8 9 9 9 8 8 9 9 9 11 13 13 15 16 18 20 22 23 25 26 25 25 27 26 24 24 26 27 27 25 24 24 22 20 19 19 20 21 22 21 18 17 16 16 17 19 18 18 19 19 19 20 19 20 22 21 20 22 21
10 10 10 11 11 11 11 11 12 11 11 11 11 10 10 10 11 12 13 13 12 11 11 11 10 9 9 10 10 10 11 11 11 11 10 11 12 12 14 17 19 21 22 23 25 26 26 27 28 28 27 26 28 29 28 26 25 25 24 21 20 19 20 21 22 22 20 18 17 17 18 19 18 19 20 19 19 19 19 20 22 22 22 23 23
9 10 10 11 11 11 11 11 12 11 11 11 11 11 11 11 12 13 14 14 13 13 12 12 11 10 10 10 11 11 12 13 14 14 12 12 12 13 14 16 19 22 23 23 24 26 28 28 28 29 28 27 28 30 29 26 25 25 23 21 20 19 20 21 21 22 22 21 21 19 18 18 18 18 19 19 19 19 20 20 21 23 24 24 22
9 9 10 10 11 11 12 12 12 12 12 12 12 12 12 13 14 14 14 14 14 14 14 13 11 11 12 11 10 11 12 14 14 15 14 13 13 14 15 16 18 21 23 24 25 26 29 29 28 28 27 26 28 30 29 25 23 23 22 20 20 19 20 21 22 22 21 21 20 19 18 18 17 18 19 18 18 18 20 19 18 21 24 23 22
10 10 10 11 11 12 12 12 13 13 13 13 14 14 14 14 15 15 15 16 15 15 16 15 13 13 14 14 12 12 13 14 15 14 14 14 15 16 16 16 17 19 22 25 26 27 30 29 27 27 25 25 27 28 29 27 24 23 22 21 20 19 20 21 21 20 20 20 18 18 18 18 18 19 19 18 18 19 20 20 19 20 20 20 21
11 11 11 11 12 12 13 14 14 15 15 15 15 15 16 16 16 15 16 16 16 16 17 17 16 15 15 15 15 15 14 15 15 15 15 16 17 17 17 17 19 20 22 26 28 29 29 27 26 25 22 22 25 27 27 27 25 23 22 21 19 18 19 19 20 19 19 18 18 18 18 19 19 19 18 18 19 20 21 21 23 24 21 20 20
12 12 12 13 12 13 14 15 15 16 16 17 16 16 17 17 16 16 17 17 17 17 17 17 18 18 16 16 17 17 16 16 16 16 17 18 19 19 18 18 20 21 23 28 30 29 27 25 23 21 19 20 22 25 26 25 24 23 21 20 19 19 19 19 19 19 19 19 19 19 19 20 20 19 19 19 20 20 19 20 23 24 22 21 22
13 13 13 13 14 14 15 16 16 16 17 17 17 17 17 17 17 17 17 17 17 18 18 18 19 19 19 17 17 17 17 16 16 16 17 18 19 20 20 19 19 20 23 28 29 29 28 26 22 19 19 20 20 22 24 23 23 23 23 22 20 20 19 18 18 19 19 18 19 19 20 20 20 20 21 21 19 19 19 19 20 21 21 22 23
13 13 14 14 15 16 16 16 16 16 16 17 18 18 18 19 18 18 18 18 18 18 18 18 19 20 20 19 18 18 18 17 16 16 17 18 18 19 19 19 18 19 22 27 29 31 30 23 18 17 17 17 18 20 22 23 24 24 25 23 20 19 19 18 18 18 18 18 18 19 19 19 20 21 21 21 20 20 21 20 20 21 22 23 23
13 13 14 14 16 16 17 17 17 16 16 17 18 19 18 19 19 19 18 18 18 18 18 18 19 19 20 21 19 18 19 19 18 17 17 18 18 18 18 18 18 18 21 25 28 28 24 16 12 13 14 15 16 19 21 22 23 24 25 23 21 19 19 18 18 18 18 18 19 20 19 19 20 20 20 20 19 20 21 19 19 20 20 22 23
13 14 14 15 16 16 17 17 17 17 17 17 18 19 19 19 20 19 19 18 18 18 18 19 19 19 20 21 21 20 20 20 19 18 18 18 17 17 16 16 16 17 19 21 23 22 15 11 10 11 13 15 15 17 19 21 22 23 22 22 20 18 17 17 18 17 17 18 19 19 19 19 19 19 20 19 18 18 20 19 18 19 19 21 22
14 14 15 15 15 16 16 17 17 18 17 17 17 18 19 19 20 19 19 18 18 18 18 19 20 20 21 22 22 21 21 21 20 19 19 18 17 16 15 14 14 16 18 19 20 17 10 5 7 9 11 13 14 16 18 20 20 20 21 21 20 17 16 16 17 18 17 18 19 19 18 17 18 19 19 19 17 17 18 18 16 16 17 19 20
15 15 15 15 15 15 16 16 17 17 17 17 17 18 19 20 20 20 20 19 19 18 19 20 20 21 21 22 22 22 22 23 22 20 19 18 17 16 15 13 13 14 17 19 18 15 11 7 5 7 8 10 13 15 17 18 19 19 20 20 19 17 16 17 17 18 18 18 18 17 16 17 17 18 18 19 19 18 19 19 18 17 18 18 18
13 14 15 15 15 15 15 16 16 17 18 18 18 19 19 20 20 21 20 20 19 19 19 20 21 21 22 22 22 22 23 23 23 22 20 19 18 17 16 14 13 13 14 16 16 12 8 6 6 7 8 9 11 13 15 17 17 18 19 20 18 17 17 17 18 18 18 18 17 16 16 18 19 18 18 19 20 20 21 22 22 21 21 20 20
12 13 13 14 14 14 15 16 16 17 17 17 18 19 20 20 20 21 21 20 19 20 20 20 21 22 22 22 22 22 22 23 23 23 22 20 19 18 17 16 15 13 13 14 14 12 6 3 3 5 5 7 10 11 13 16 16 17 19 20 18 17 16 15 17 19 18 18 18 17 17 19 19 19 18 19 20 20 21 22 21 21 19 19 21
11 11 12 13 14 14 15 15 16 16 17 17 17 18 19 20 21 21 21 20 20 20 20 20 21 21 22 22 22 22 22 23 23 23 22 21 20 19 18 17 17 15 14 13 14 14 10 4 1 2 3 5 8 10 11 14 16 17 18 19 19 18 16 15 17 19 18 17 17 17 18 19 19 18 18 19 20 20 21 21 21 21 20 20 21
11 11 12 12 13 14 15 15 15 16 15 16 16 16 17 19 19 20 20 20 20 20 20 20 21 22 22 23 23 22 23 23 23 23 22 22 21 20 19 20 20 20 17 15 14 14 13 9 4 1 4 8 9 9 11 14 17 18 19 19 20 20 17 16 17 18 17 16 16 16 18 18 17 17 18 18 19 20 21 22 21 22 22 21 20
10 11 11 12 13 13 14 15 15 15 14 14 14 14 15 15 16 18 19 20 21 20 20 21 21 22 22 23 23 23 23 23 23 23 23 23 22 21 20 19 20 22 22 20 17 15 15 14 10 5 4 7 9 10 13 17 20 20 20 19 20 20 20 19 18 17 17 16 16 16 16 16 16 16 16 15 16 19 20 21 21 20 20 20 19
10 10 11 12 13 13 14 14 14 14 14 14 13 13 13 13 14 16 17 18 19 19 20 20 21 22 23 23 23 23 23 22 22 22 23 23 23 22 21 19 18 20 22 24 24 22 18 16 14 11 8 8 10 12 14 16 19 20 20 19 19 20 21 21 19 18 17 17 16 15 14 15 15 15 15 15 16 16 17 18 19 17 16 18 20
10 10 10 11 11 12 13 14 14 14 13 14 13 12 13 13 14 15 16 17 17 18 19 20 21 22 22 22 22 23 23 23 23 22 23 23 23 22 22 20 19 19 19 21 25 27 26 23 19 15 12 10 10 12 13 14 16 19 19 19 19 20 21 21 21 19 18 18 17 16 15 16 16 15 15 15 16 16 15 15 15 15 17 20 21
9 9 9 9 9 10 12 13 14 14 13 14 13 13 13 13 14 15 16 16 17 18 19 19 20 21 21 21 21 21 22 23 23 23 23 23 22 22 22 22 21 21 20 19 20 22 26 29 26 22 18 15 12 12 14 14 14 17 19 20 20 21 21 21 20 19 18 17 17 17 16 17 16 14 14 15 15 16 14 11 13 16 20 22 20
8 8 8 9 9 10 11 12 13 14 14 14 14 14 13 14 15 15 16 16 17 18 18 18 19 20 20 20 20 20 21 22 23 24 24 24 23 23 23 22 22 22 21 20 19 18 20 25 28 27 25 22 19 15 13 14 14 16 18 19 21 22 23 22 20 19 16 15 16 16 16 16 15 14 15 14 14 16 14 12 13 15 16 17 17
8 8 8 8 8 9 10 11 12 13 14 13 14 14 14 14 15 15 16 16 17 17 18 18 18 19 19 20 20 20 21 21 22 23 23 24 24 24 24 23 23 22 22 21 20 19 18 20 23 26 26 26 25 23 19 15 13 15 17 19 20 21 23 23 20 16 13 14 17 17 17 18 17 16 16 15 15 15 16 15 14 12 11 12 13
8 8 7 7 7 8 9 11 12 12 13 13 13 13 14 14 15 15 16 16 17 17 17 17 17 18 19 20 20 20 21 21 22 23 23 23 23 23 24 24 23 23 23 22 22 21 19 19 21 23 25 26 26 26 25 23 18 13 14 16 18 19 20 21 18 15 14 16 19 18 18 18 18 18 17 17 16 16 17 15 12 11 12 14 13
8 7 7 7 8 8 9 10 11 11 12 12 12 13 13 14 14 15 16 16 16 16 16 16 17 17 18 19 20 20 20 20 21 22 23 23 23 23 23 23 23 23 24 24 23 22 22 21 20 21 23 25 26 26 26 26 24 20 14 12 14 15 17 18 17 17 19 20 21 20 20 20 20 20 20 19 17 18 18 14 11 12 14 14 12
8 7 7 7 7 8 8 9 9 10 10 11 12 12 13 13 14 15 15 15 15 16 16 16 17 17 17 18 19 19 20 20 21 22 22 23 24 23 23 22 22 22 23 24 24 23 22 23 22 21 22 24 25 25 25 25 25 24 21 16 13 11 12 15 17 17 18 20 21 21 20 21 22 23 23 21 19 20 20 16 14 15 14 11 11
8 7 7 7 7 7 7 8 8 9 9 10 11 12 12 13 14 14 14 14 15 15 16 16 16 17 17 17 17 18 19 20 21 21 22 23 23 24 24 24 23 23 23 23 24 23 23 23 23 23 24 25 24 23 24 24 24 24 23 21 17 14 10 10 13 15 17 18 19 20 20 19 21 23 22 21 21 22 22 20 19 17 13 10 11
9 8 7 7 8 8 7 8 8 8 8 9 9 11 12 13 13 13 14 14 14 15 15 16 16 17 17 17 17 17 18 19 20 21 22 22 23 24 24 25 24 23 23 23 23 23 23 23 22 22 23 25 24 22 22 22 23 23 22 22 20 17 14 10 8 9 12 13 14 15 17 17 18 21 21 19 20 23 24 23 21 19 15 14 13
9 9 8 8 9 8 8 8 8 8 8 8 8 9 10 12 13 13 14 14 14 15 15 15 16 16 16 17 16 16 17 17 18 21 22 22 23 23 24 26 26 25 24 23 23 23 22 22 22 21 22 22 23 23 21 21 21 21 20 20 19 17 14 12 9 5 3 4 5 8 12 14 15 16 18 18 17 18 20 21 20 21 22 23 21
9 9 9 9 9 9 9 9 8 8 8 8 8 8 9 10 12 13 13 14 14 14 15 15 16 16 16 17 16 16 16 16 16 18 21 22 22 21 22 24 26 25 24 23 24 23 22 21 20 20 21 21 21 22 22 20 19 19 19 17 16 15 14 12 11 10 8 5 2 3 6 9 10 11 15 18 18 17 17 17 18 20 23 25 25
9 9 9 9 9 9 8 8 8 8 8 8 8 8 8 9 10 12 12 13 13 14 14 15 16 16 16 16 17 16 16 16 15 16 19 21 22 20 20 22 26 26 25 24 23 24 23 20 18 18 20 22 22 22 21 20 19 18 17 15 14 14 14 13 13 11 10 8 7 6 7 7 7 9 13 17 19 19 18 17 17 19 20 20 21
9 9 9 8 8 8 8 8 8 8 8 8 8 8 7 8 9 10 11 12 12 13 14 14 15 15 15 16 17 16 16 16 15 15 18 20 20 20 19 22 26 28 26 25 24 25 24 21 17 16 18 22 23 23 23 22 21 19 17 15 13 12 11 12 14 13 11 11 10 10 10 10 11 12 14 15 16 17 17 17 18 18 17 17 16
10 9 9 8 8 8 8 8 8 8 9 8 8 8 7 7 8 10 11 11 11 12 13 13 14 14 15 16 16 16 16 17 15 16 19 22 21 20 20 21 24 27 27 26 26 27 27 23 18 17 19 21 23 23 22 21 19 18 18 18 16 14 11 10 9 8 7 6 7 8 9 10 12 13 13 14 14 14 15 15 16 16 16 16 16
9 9 8 8 8 8 8 9 9 9 9 8 8 7 7 7 8 9 10 11 11 11 12 13 13 14 14 15 15 15 16 17 16 16 18 20 20 22 23 23 23 25 27 26 26 27 27 23 19 18 20 21 21 20 20 19 17 16 17 18 18 17 15 13 11 8 4 2 2 4 6 8 8 8 9 9 9 9 9 10 10 11 11 11 12
9 8 8 7 7 8 8 9 9 9 8 8 8 7 7 7 8 9 10 11 11 11 12 12 12 13 13 13 14 15 15 16 17 17 17 17 18 20 23 24 24 25 26 25 25 25 26 25 23 20 19 18 17 17 17 17 15 13 14 15 16 16 16 17 16 12 8 7 7 7 7 7 6 5 5 5 4 4 4 5 5 6 7 7 8
Wind_Direction
72 69 65 66 73 78 79 76 75 65 62 74 75 67 91 100 96 285 220 209 224 244 256 257 260 263 263 268 271 272 274 274 277 281 280 280 280 280 277 277 277 273 269 266 267 268 265 263 263 263 258 255 255 251 248 247 246 244 240 237 238 238 232 225 221 222 223 215 206 220 226 218 224 236 238 237 229 219 217 215 214 215 214 215 212
93 89 86 87 89 90 89 85 82 80 81 83 59 44 71 63 19 4 25 65 168 244 260 260 264 266 265 268 270 273 276 277 279 280 280 277 274 277 276 274 275 273 270 268 266 264 264 264 261 261 261 260 258 253 250 250 249 246 244 242 241 237 236 231 221 218 220 219 217 226 229 224 231 237 236 237 235 225 220 214 212 212 209 210 209
97 98 99 103 105 105 104 102 100 103 107 107 99 74 68 58 33 20 22 34 55 87 283 279 281 272 264 260 260 264 268 271 267 266 274 274 270 272 274 272 271 270 271 271 269 264 263 266 264 260 260 261 259 255 254 252 249 245 244 244 241 235 234 233 224 213 214 219 221 227 229 229 237 241 239 241 234 221 220 217 216 216 211 209 207
88 94 97 104 110 112 110 108 110 116 117 114 114 104 89 65 42 25 18 22 23 29 359 308 295 272 256 248 248 248 249 256 259 261 268 271 269 270 272 272 268 266 267 270 270 267 266 268 267 263 261 261 259 258 256 252 249 245 242 242 240 237 236 236 230 221 220 222 218 220 224 223 232 241 242 244 235 220 220 223 222 219 209 206 206
82 89 94 101 109 115 116 117 119 121 117 112 113 113 103 74 27 353 350 352 338 339 337 313 299 283 264 253 251 247 242 248 259 269 271 269 269 270 272 274 271 270 270 272 273 272 271 268 265 263 260 259 258 259 256 250 249 248 245 242 241 243 240 236 232 229 231 231 221 214 216 219 229 236 237 240 236 225 222 223 224 222 210 204 207
76 80 83 89 100 110 118 119 115 108 102 96 87 80 68 33 332 322 329 325 316 315 312 305 300 287 266 255 257 254 250 251 258 268 268 268 274 273 271 271 271 274 277 275 269 267 267 265 263 261 257 257 257 257 255 249 247 248 248 244 243 244 239 233 231 230 230 229 224 219 221 227 228 228 231 237 238 231 227 227 226 225 216 207 207
70 70 68 75 87 95 100 98 92 85 77 66 48 37 23 4 345 333 321 306 302 286 275 288 294 281 265 257 258 259 259 257 256 263 264 263 271 273 268 267 266 269 272 269 266 265 264 261 261 261 258 256 255 253 251 248 247 248 248 246 244 241 235 233 233 229 225 225 225 226 231 238 238 240 243 237 238 235 231 229 225 225 219 209 206
66 63 60 63 67 71 73 73 76 76 71 64 48 33 22 12 351 325 292 284 290 274 248 252 268 274 276 274 267 263 262 260 257 264 272 270 269 268 265 263 262 263 265 267 270 270 262 256 258 260 258 255 255 254 252 249 247 247 246 243 242 239 234 233 233 231 230 229 229 227 232 240 240 241 242 232 237 241 233 226 223 225 221 212 209
66 63 58 56 54 54 53 55 62 65 62 51 30 12 1 343 298 283 267 269 284 284 259 228 223 243 266 276 275 271 268 268 266 264 270 272 270 266 263 264 263 263 264 266 268 267 259 254 255 256 254 252 254 254 251 248 247 245 240 234 235 236 233 231 233 236 234 231 232 230 233 239 234 228 226 227 234 236 232 225 215 213 215 212 209
66 63 59 56 51 49 46 44 44 39 35 26 15 11 10 8 353 335 307 292 293 288 268 240 225 238 259 266 273 279 276 270 268 264 262 264 267 266 264 266 263 259 261 262 263 262 258 257 255 253 251 250 251 248 245 246 247 244 234 228 230 230 229 229 234 237 233 231 235 234 232 233 229 223 225 231 232 232 234 230 214 208 212 210 207
66 62 58 56 50 48 43 40 38 33 29 24 21 23 21 19 11 5 360 351 340 324 296 267 260 273 272 262 261 273 280 277 273 270 267 264 266 268 266 266 264 259 257 257 260 261 257 257 255 252 250 250 249 245 242 242 242 238 231 228 227 225 225 227 228 227 226 227 230 227 223 226 228 229 233 234 232 232 234 232 220 211 212 212 208
62 57 53 51 46 43 38 34 32 27 25 21 19 19 16 14 11 8 5 0 356 352 343 313 302 300 282 277 271 264 264 269 271 271 271 269 268 268 265 263 264 263 259 256 258 258 254 253 252 250 249 248 245 243 242 239 234 230 226 224 220 220 222 222 220 220 221 224 224 219 218 224 229 233 236 235 232 231 232 232 226 213 210 216 214
58 54 50 47 41 36 33 29 26 21 20 16 13 11 9 8 8 7 2 0 1 356 351 343 330 316 299 297 291 279 269 265 268 270 268 268 269 269 267 265 262 261 262 261 258 257 253 251 250 247 246 243 241 240 239 235 230 226 221 218 215 216 219 219 219 221 222 224 225 222 221 226 230 233 237 236 232 229 231 233 228 218 214 212 212
56 51 47 44 39 35 30 27 25 21 18 14 11 8 5 5 4 5 1 359 4 359 353 348 340 329 318 310 297 295 294 280 274 275 273 269 265 265 267 268 266 260 261 264 262 259 255 252 250 248 245 241 236 234 233 229 228 225 218 216 216 217 219 218 221 224 223 224 227 227 227 230 233 233 235 234 228 225 227 229 226 223 221 214 210
55 51 47 43 39 36 32 28 24 23 20 16 12 9 7 6 4 4 2 360 2 359 353 350 344 334 330 329 309 290 282 274 278 287 291 290 282 274 270 269 269 267 263 263 262 258 254 251 249 247 245 239 233 231 229 226 228 226 221 220 218 217 219 217 221 226 225 226 229 230 232 236 235 234 236 234 228 225 225 226 227 224 221 219 212
57 52 47 43 40 37 34 29 25 24 22 19 15 11 10 8 6 6 4 1 0 358 353 351 347 338 335 333 314 288 265 261 279 285 284 289 293 291 286 280 275 273 269 264 260 256 254 252 250 249 248 243 236 231 228 226 227 225 222 223 219 217 218 217 221 227 228 226 227 229 232 235 236 237 240 237 230 228 224 222 227 225 216 214 207
60 54 49 45 41 39 37 32 29 27 25 23 20 16 14 13 11 10 10 7 2 0 358 352 348 343 337 330 321 312 297 288 293 290 280 281 286 289 288 286 282 279 276 269 262 258 256 254 253 250 246 244 239 233 229 228 224 221 220 220 218 216 217 218 220 224 228 229 229 233 234 232 232 234 238 235 230 228 220 213 220 221 214 212 205
62 57 53 49 44 42 42 38 34 32 30 28 23 20 18 15 16 14 12 11 6 3 1 355 348 341 333 328 325 321 315 307 302 299 296 292 290 289 287 287 285 282 279 274 265 259 255 255 254 250 244 243 242 235 230 228 223 221 220 219 220 219 218 220 222 224 228 229 232 238 236 230 231 233 234 233 228 226 224 218 218 218 215 213 208
63 57 53 49 46 43 42 40 37 34 32 30 25 22 19 16 20 19 12 9 9 7 2 357 352 343 334 330 325 319 312 306 304 302 301 298 298 295 290 289 288 285 283 279 270 261 256 253 251 250 245 242 241 234 228 227 225 224 222 218 219 219 218 220 222 226 231 232 233 235 233 229 232 233 230 227 224 225 229 229 224 221 219 215 209
64 58 53 49 47 43 41 40 37 34 33 30 25 21 19 18 19 20 15 11 11 11 5 360 355 349 342 334 325 321 315 310 309 308 304 305 305 296 288 289 291 290 288 285 278 268 263 259 254 252 246 239 237 232 228 229 228 228 227 221 218 218 219 221 223 227 230 231 232 228 226 228 231 231 226 221 220 222 227 228 225 225 224 215 208
65 60 55 50 47 44 42 40 38 35 33 31 27 23 21 21 20 17 15 14 13 13 9 3 357 354 350 342 332 324 318 314 314 312 309 308 305 297 291 288 288 290 290 287 283 274 269 266 261 257 247 237 233 228 227 230 230 230 229 225 222 221 224 227 227 228 229 230 228 222 224 231 230 229 225 219 218 220 223 223 220 222 221 212 207
68 63 57 53 50 46 43 41 40 37 33 31 29 25 23 22 22 19 15 14 14 13 11 5 359 357 355 350 342 331 321 317 317 316 313 310 306 301 298 292 288 290 291 289 286 280 276 272 267 262 250 240 234 227 226 230 229 229 228 225 224 223 226 230 228 226 226 227 224 220 224 229 228 226 224 219 219 221 224 225 224 223 221 217 211
72 66 60 56 52 49 45 42 40 37 33 31 29 26 25 22 21 19 16 14 12 12 11 6 2 1 359 355 350 341 329 320 317 317 315 311 309 308 305 301 298 297 295 294 290 283 277 272 269 264 253 248 242 229 227 230 229 228 227 224 223 222 225 229 227 225 223 222 224 222 221 223 224 223 221 219 220 223 225 228 228 225 222 221 217
75 69 64 59 54 50 46 42 40 37 34 32 30 27 26 24 23 19 16 14 12 11 10 6 4 4 1 358 355 350 341 330 322 318 315 312 311 311 309 306 306 306 302 299 295 287 279 270 261 258 256 256 248 234 230 231 228 228 228 226 224 222 224 226 225 225 225 223 225 223 219 219 220 221 221 221 221 221 223 226 226 222 219 219 216
77 71 64 58 53 49 46 42 39 37 35 32 31 29 26 24 24 21 16 14 13 11 9 6 4 4 2 0 357 355 353 345 334 324 317 314 312 313 312 305 305 310 307 303 301 295 287 273 254 253 261 259 248 239 236 233 233 235 233 228 223 219 218 220 221 223 226 225 224 224 221 218 218 221 224 224 221 219 220 224 224 221 220 218 213
77 71 64 58 54 49 45 42 38 36 34 32 30 29 27 24 23 23 19 15 13 12 9 7 6 4 4 2 359 358 356 352 344 334 327 322 318 318 314 303 301 309 309 309 310 301 288 272 255 256 263 261 254 248 243 239 240 242 237 228 221 217 215 217 219 221 225 226 225 225 222 217 218 221 225 227 224 219 220 224 226 224 222 218 213
76 70 64 58 54 48 44 41 38 35 33 32 30 28 26 25 22 23 22 17 14 13 11 10 7 6 6 4 1 0 358 354 350 343 334 327 323 322 317 307 304 308 310 313 317 312 293 265 260 266 262 261 263 254 244 242 247 250 246 236 225 218 216 218 220 220 222 226 227 227 225 221 220 219 222 228 227 221 220 223 226 226 221 219 216
75 69 63 58 53 47 44 41 37 35 32 31 31 28 26 25 22 22 23 19 16 14 13 12 10 9 8 5 2 1 360 357 353 348 341 332 329 326 320 313 308 308 310 312 318 328 334 298 270 273 265 265 270 259 247 247 252 256 256 247 234 223 217 220 224 223 223 226 228 227 227 227 225 220 220 224 223 221 220 219 222 225 221 219 219
74 66 60 56 51 46 44 41 37 34 32 30 29 26 24 24 22 21 21 20 18 16 15 14 12 10 9 7 4 3 2 359 357 354 350 343 338 333 325 318 312 309 312 314 316 328 349 352 307 286 281 283 283 270 257 252 251 253 256 251 241 232 226 227 230 229 226 227 228 227 225 226 227 226 222 219 218 218 217 214 213 218 219 215 211
75 66 58 52 49 45 42 40 36 32 31 29 27 25 23 22 21 20 20 20 19 18 17 16 14 12 10 8 7 5 3 2 1 359 355 352 348 343 335 327 323 318 313 315 318 322 341 352 325 312 315 312 299 278 260 251 248 253 260 260 256 247 235 230 233 233 229 225 224 222 223 224 226 228 226 222 221 221 220 218 215 216 218 215 210
72 67 59 51 47 43 39 37 34 31 29 27 25 24 22 21 20 19 19 20 20 19 18 16 15 13 11 10 9 7 5 4 4 1 359 357 356 355 350 342 336 333 322 315 317 321 336 3 317 312 317 304 292 277 258 247 242 249 257 261 265 260 245 234 236 238 234 229 226 223 226 229 229 231 231 228 226 225 224 223 219 216 217 219 219
72 65 58 52 46 41 38 35 32 31 29 26 24 22 21 20 19 19 19 19 21 20 18 17 15 13 12 12 10 8 7 5 4 3 2 1 0 2 4 0 354 349 340 329 323 323 329 340 309 256 231 242 258 261 251 241 243 248 249 252 259 261 254 247 244 243 238 234 233 232 233 235 233 229 229 228 227 227 226 224 220 219 221 225 227
74 66 58 52 46 40 38 34 31 31 29 27 24 22 23 22 18 19 21 21 22 21 18 17 15 13 13 12 11 9 8 6 5 4 3 3 3 5 9 11 10 7 0 351 342 336 333 331 328 265 223 226 233 242 243 240 244 246 244 246 252 255 254 249 245 245 242 237 236 236 237 239 235 229 228 227 225 225 226 225 223 223 226 228 227
74 68 61 53 46 42 38 34 31 30 29 29 27 25 26 25 18 19 23 23 22 21 19 17 15 13 13 12 10 9 8 6 5 5 5 5 5 5 6 9 12 13 13 10 3 355 346 340 337 326 276 247 240 242 244 243 243 241 239 243 249 252 252 249 245 247 246 239 236 238 238 236 234 233 232 226 224 226 226 225 225 227 228 228 224
75 71 63 53 45 41 38 35 32 31 30 29 29 27 27 27 23 22 22 21 21 20 18 17 16 14 12 11 10 9 8 7 5 6 7 6 6 6 5 5 6 9 14 18 17 14 6 357 349 342 325 289 261 249 245 243 243 242 242 244 247 252 254 252 249 250 251 245 236 233 236 235 234 235 233 223 220 225 225 222 221 222 224 224 221
81 75 66 57 46 41 40 37 34 34 33 31 30 30 30 29 27 25 24 23 22 20 19 17 16 14 12 11 10 9 8 8 6 6 6 6 6 6 5 5 6 6 8 14 19 21 19 15 8 358 346 323 287 264 253 246 240 239 243 246 248 251 251 252 254 254 258 258 245 233 237 238 229 226 233 230 219 218 226 223 210 206 214 222 223
86 78 70 64 56 50 46 41 39 37 36 35 34 33 34 32 30 28 26 25 23 21 19 17 15 14 12 10 10 9 9 9 8 8 8 6 6 5 5 5 6 6 6 7 11 16 20 21 19 14 6 352 329 297 276 264 249 241 241 242 246 248 247 251 259 260 263 266 253 240 241 240 226 220 236 243 227 218 224 219 199 202 216 224 226
90 82 75 70 64 58 50 44 43 41 39 39 38 38 38 36 33 30 27 26 24 22 20 17 16 14 12 11 10 10 10 10 9 9 9 8 8 7 6 6 5 5 6 6 5 6 11 17 20 20 17 11 3 346 315 290 270 256 249 242 243 246 245 247 258 264 265 263 250 240 241 242 234 230 239 246 235 221 213 203 199 208 224 229 226
95 89 83 77 69 61 53 46 44 42 40 40 40 40 41 38 34 30 28 26 24 20 18 16 15 14 13 13 12 12 12 12 10 10 9 9 8 8 8 8 8 7 6 5 6 5 4 9 14 17 17 15 13 9 358 337 302 276 264 253 248 248 248 249 255 260 259 251 241 236 238 239 236 233 233 238 234 216 203 204 207 208 222 233 230
99 94 86 81 72 63 57 50 45 43 41 40 40 40 39 36 33 30 28 26 22 18 17 15 14 14 14 14 14 14 15 15 13 12 11 10 8 8 8 9 9 10 9 7 8 8 6 5 7 11 14 14 12 10 8 3 349 319 288 271 263 257 251 249 248 242 239 240 238 234 234 235 232 227 228 234 230 208 196 202 207 205 221 233 230
99 93 87 82 72 65 61 53 47 45 42 40 40 39 37 35 32 29 26 23 19 17 16 16 15 15 15 14 15 15 16 16 15 14 13 13 11 9 8 9 8 8 9 9 9 10 10 8 6 7 9 11 11 8 5 5 3 356 338 311 292 275 258 247 239 232 234 241 244 242 238 235 230 225 228 235 227 202 192 197 201 205 217 222 214
97 90 87 84 75 69 64 55 49 46 43 41 40 39 37 34 31 28 24 20 18 17 16 16 17 16 15 15 15 15 16 15 15 15 14 14 14 12 11 10 9 8 8 9 10 10 10 11 11 11 10 10 11 10 7 5 5 5 3 356 342 319 283 259 249 243 241 245 252 256 251 240 230 225 229 234 221 197 189 191 197 202 205 202 198
98 91 87 87 83 75 66 57 51 46 42 40 38 38 37 33 29 26 22 19 19 18 17 17 18 17 16 16 14 14 16 16 15 15 15 14 14 14 14 12 11 10 8 8 9 10 9 10 11 13 14 14 13 12 11 10 9 9 10 10 7 360 338 296 272 262 255 250 253 260 261 251 234 226 224 222 211 197 188 187 195 203 199 185 181
97 91 88 89 86 79 70 61 52 45 42 39 36 36 36 32 27 24 22 20 19 18 18 18 18 17 16 15 15 14 15 17 17 17 17 16 15 14 15 14 13 12 11 8 7 8 9 9 10 10 12 16 19 19 17 17 16 14 14 15 15 13 9 356 325 285 262 250 243 247 254 252 237 227 220 210 200 193 188 187 192 192 175 155 152
98 92 92 93 88 81 74 64 55 47 42 37 35 35 36 33 28 23 21 22 20 18 19 19 18 18 16 15 15 14 13 16 18 19 18 16 14 14 14 14 14 13 13 10 8 7 7 7 9 9 9 12 19 23 25 27 26 22 20 20 21 23 24 21 16 1 302 263 230 223 234 238 231 222 213 204 195 189 188 188 188 183 171 160 156
102 95 95 94 89 83 75 65 57 49 42 37 35 37 38 35 29 24 23 23 21 20 21 21 19 18 17 16 16 15 14 13 14 17 17 15 13 12 12 13 13 13 12 11 9 7 6 4 6 9 9 8 11 16 21 26 30 30 28 27 27 31 35 37 38 45 47 39 55 170 201 215 215 205 197 196 194 192 193 192 187 183 181 178 177
105 99 98 95 89 82 72 63 55 44 37 35 34 37 41 37 32 28 25 25 25 23 23 22 21 19 18 18 18 16 15 13 11 12 13 13 14 12 7 8 11 12 12 12 10 9 7 4 3 6 9 10 8 7 9 14 18 20 22 25 32 40 48 54 56 59 67 74 85 104 123 146 164 171 177 182 184 187 190 191 187 184 184 184 184
108 102 99 93 85 77 66 57 50 38 32 32 34 38 43 39 35 31 26 26 28 26 25 23 22 21 20 19 18 17 15 13 10 8 8 10 14 15 9 5 8 10 11 11 11 10 8 6 3 0 2 7 9 8 9 10 12 13 13 15 21 29 42 57 62 67 77 89 98 104 107 114 128 139 145 150 157 163 167 170 172 172 169 167 168
111 104 98 91 81 72 61 52 44 34 31 35 37 39 43 41 37 33 28 28 29 28 27 25 23 23 22 19 18 17 15 14 11 6 3 4 9 14 13 7 5 8 9 9 8 8 7 8 8 3 358 359 2 4 7 11 15 21 25 26 27 26 26 36 48 57 70 87 100 109 112 117 126 130 129 128 130 135 140 145 151 152 150 149 149
117 108 100 90 76 66 57 48 41 36 36 39 40 41 45 44 39 35 32 31 29 27 28 26 23 21 21 19 18 17 14 14 13 8 3 2 3 6 7 5 4 5 6 6 6 7 5 5 8 7 2 359 356 354 357 3 10 19 27 32 37 38 36 35 30 18 360 4 48 86 103 112 123 131 133 131 132 134 136 140 146 150 152 154 155
124 114 104 92 74 62 54 44 39 39 39 39 41 45 50 49 42 39 36 33 30 30 28 24 20 19 18 15 14 14 12 11 10 8 6 5 2 359 359 0 1 2 2 2 3 5 2 360 360 359 356 354 351 346 347 354 4 15 21 27 36 42 43 43 38 30 28 40 47 52 61 67 73 86 101 109 115 129 146 157 165 172 175 177 178